Volver al catálogo

CZ-6A DEB

ActivoPO
NORAD 61146·DEBRIS·🇨🇳 China

Lanzado Aug 6, 2024 desde Taiyuan Satellite Launch Center

Loading…

Próximos Pases (próximas 24 horas)

TLE

ActualizadoSource: Space-Track

Época: Sep 14, 2026, 00:17 UTC

1 61146U 24140QQ  26257.01245734  .00002159  00000-0  87838-3 0  9991
2 61146  89.1295 276.3324 0077705 299.5827  59.7638 14.25622364107044

Sigue CZ-6A DEB en tiempo real con AllMySat

Download on the App Store